World > North America > United States > Alabama > Helena  

Helena, AL Hourly Weather Updates

Feedback E-mail the Weather

Quick Clicks

Helena, AL Weather Maps

°F °C°F °C
Helena Weather Map
UTC Time: 4/24/2024, 17:49
Your Time:

Helena, AL Regional Weather

Expires:202404241800;;302087
ASUS44 KBMX 241710
RWRAL 
             
ALABAMA REGIONAL WEATHER ROUNDUP
NATIONAL WEATHER SERVICE BIRMINGHAM AL
1200 PM CDT WED APR 24 2024

NOTE: "FAIR" INDICATES FEW OR NO CLOUDS BELOW 12,000 FEET
WITH NO SIGNIFICANT WEATHER AND/OR OBSTRUCTIONS TO VISIBILITY.

THE REMARK "TC" DENOTES TEMPERATURE IN DEGREES CELSIUS.


ALZ015-024>026-033>036-041>044-241800-
CENTRAL ALABAMA
  
CITY           SKY/WX    TMP DP  RH WIND       PRES   REMARKS
BIRMINGHAM     PTSUNNY   70  56  61 W8        30.17S TC  21           
MONTGOMERY     PTSUNNY   77  58  51 NW13      30.16S TC  25           
SHELBY CO ARPT CLOUDY    70  59  68 MISG      30.15S TC  21           
MAXWELL AFB    CLOUDY    74  57  54 W7        30.14S TC  24           
GREENVILLE     SUNNY     75  56  51 CALM      30.15S TC  24           
SELMA            N/A     75  61  60 NW8G14    30.15F TC  24           
PRATTVILLE     MOSUNNY   75  57  53 CALM      30.15F TC  24           
BESSEMER       PTSUNNY   71  58  63 NW8       30.16S TC  22           
TALLADEGA      PTSUNNY   72  57  60 NW8       30.14S TC  22           
PELL CITY      PTSUNNY   72  59  64 SW8       30.15S TC  22           
SYLACAUGA      CLOUDY    71  58  62 W8        30.16S TC  22           
JASPER         PTSUNNY   70  59  68 NW5       30.14S TC  21           
$$
 

SKY/WX - Weather  TMP - Temperature  DP - Dew Point  RH - Humidity
WIND - Wind Direction/Speed PRES - Barometric Pressure VSB - Visibility
WCI - Wind Chill Index E13G22 Wind - East Wind 13 mph/Gusts of 22 mph

Trending Headlines

Trending Entertainment Headlines

Helena Radar Loop

Use the map search tool if you want to place a location marker on the radar map...

Helena Quick Facts

National Two Day Weather Forecast


E-mail the Helena Weather Forecast

Voice your opinion or tell us about page issues...